Regional Weather Roundup
Issued by NWS Jackson, KY

Home | Current Version | Previous Version | Text Only | Print | Product List | Glossary Off
Versions: 1 2 3 4 5 6 7 8 9 10 11 12 13 14 15 16 17 18 19 20 21 22 23 24 25 26 27 28 29 30 31 32 33 34 35 36 37 38 39 40 41 42 43 44 45 46 47 48 49 50

267
ASUS43 KJKL 282010
RWRJKL

EAST KENTUCKY HOURLY WEATHER ROUNDUP
NATIONAL WEATHER SERVICE JACKSON KY
400 PM EDT THU APR 28 2016

NOTE: "FAIR" INDICATES FEW OR NO CLOUDS BELOW 12,000 FEET WITH
NO SIGNIFICANT WEATHER AND/OR OBSTRUCTIONS TO VISIBILITY.

* THESE REPORTS ARE NOT UNDER NWS QUALITY CONTROL AND MAY NOT
  REPORT WEATHER SUCH AS PRECIPITATION AND FOG.

KYZ079-080-083-085-087-088-110-112-115-119-120-282100
...EASTERN KENTUCKY...

CITY           SKY/WX    TMP DP  RH WIND       PRES   REMARKS
JACKSON        MOSUNNY   80  57  45 MISG      29.86F
LONDON         SUNNY     80  54  40 W15       29.87F
SOMERSET*      LGT RAIN  73  55  53 W9        29.89S
MONTICELLO*    MOSUNNY   79  61  53 SW17G23   29.89F
WILLIAMSBURG*  PTCLDY    77  54  44 W8        29.88F
MIDDLESBORO*   CLOUDY    79  59  50 SW7       29.88F
HARLAN APT*      N/A     77  54  44 CALM      29.89F
HAZARD APT*    PTCLDY    79  57  47 W8G16     29.86F
BLACK MTN*       N/A     68  57  68 SW3         N/A
PIKE CO APT*   PTSUNNY   77  58  52 SW7       29.86F
BIG SANDY APT* PTCLDY    80  59  47 W9G17     29.84F
MOREHEAD APT*  LGT RAIN  66  59  77 CALM      29.87S
$$

KYZ035-036-041-042-044-050-067-078-099-282100
...CENTRAL KENTUCKY...

CITY           SKY/WX    TMP DP  RH WIND       PRES   REMARKS
MT STERLING*   MOSUNNY   79  61  53 W10G17    29.85F
FLEMING/MASON* MOSUNNY  N/A N/A N/A W14G21    29.84F
DANVILLE*      MOSUNNY   79  59  50 W10G18    29.87F
RICHMOND*      MOSUNNY   77  57  50 W16G22    29.85F
LEXINGTON      MOSUNNY   76  59  55 SW8       29.85S
FRANKFORT      MOSUNNY   78  59  51 SW10      29.82F
LOUISVILLE     PTSUNNY   80  54  40 W22G30    29.83S
LEBANON*         N/A     77  59  53 SW10      29.86F
BOWLING GREEN  MOSUNNY   80  60  50 SW9       29.88S
$$

KYZ091>093-OHZ055-061-077-WVZ005-015-034-035-042-282100
...SOUTHERN OHIO/WEST VIRGINIA...

CITY           SKY/WX    TMP DP  RH WIND       PRES   REMARKS
COVINGTON      MOSUNNY   77  60  55 W10       29.81F
COLUMBUS       CLOUDY    63  55  75 NW6       29.84F
DAYTON         PTSUNNY   67  59  75 CALM      29.85F
WILMINGTON     PTSUNNY   71  62  73 NW14      29.83S
HUNTINGTON     PTSUNNY   78  58  49 W9        29.80F
CHARLESTON       N/A     72  58  61 CALM      29.81F THUNDER
PINEVILLE*     LGT RAIN  73  57  57 MISG      29.91S
BECKLEY        PTSUNNY   73  53  49 W12       29.88F
$$

VAZ002-007-008-TNZ017-027-036-066-071-282100
...SOUTHWEST VIRGINIA/EAST TENNESSEE...

CITY           SKY/WX    TMP DP  RH WIND       PRES   REMARKS
WISE*            N/A     75  48  38 SW14G22   29.94F
BRISTOL        MOSUNNY   79  54  41 W14G24    29.89F
MORRISTOWN*    PTCLDY    79  57  47 W16       29.90F
SEVIERVILLE*   CLEAR     81  54  39 W17       29.89S
KNOXVILLE      MOSUNNY   82  57  42 SW15      29.90S
OAK RIDGE      MOSUNNY   82  56  40 VRB6G16   29.90F
CROSSVILLE     MOSUNNY   77  55  46 W13G20    29.95F
NASHVILLE      PTSUNNY   83  56  39 VRB7      29.90S
$$

...KEY TO REMARKS...
VSB - VISIBILITY IN MILES
WCI - WIND CHILL INDEX
HX  - HEAT INDEX

$$




USA.gov is the U.S. government's official web portal to all federal, state and local government web resources and services.